[[{"header":{"parameterUnit":"m.s-1","parameterCategory":1,"la1":30.2991,"la2":30.254,"lo1":-89.0895,"lo2":-89.0444,"dy":0.0017,"dx":0.0017,"nx":28,"ny":28,"refTime":"2025-11-19T03:00:00:Z","depth":0,"parameterNumber":2,"parameterNumberName":"U-component_of_WINDS"},"data":[0,0,0,0,0,0,0,0,0,0,0,0,0,0,0,0,0,0,0,0,0,0,0,0,0,0,0,0,0,0,0,0,0,0,0,0,0,0,0,0,0,0,0,0,0,0,0,0,0,0,0,0,0,0,0,0,0,0,-0.3169,-0.3168,0,-0.3055,-0.3054,-0.3053,-0.2967,-0.2966,-0.2965,-0.2965,-0.2848,-0.2846,-0.2843,0,0,0,0,0,0,0,0,0,0,0,0,0,-0.3314,-0.3312,-0.3169,-0.3168,-0.3166,-0.3056,-0.3054,-0.3052,-0.2967,-0.2966,-0.2965,-0.2964,-0.2849,-0.2846,-0.2843,0,0,0,0,0,0,0,0,0,0,0,0,0,-0.3231,-0.3311,-0.317,-0.311,-0.3104,-0.3056,-0.3054,-0.3052,-0.2967,-0.2966,-0.2965,-0.2964,-0.285,-0.2846,-0.2843,-0.2844,0,0,-0.2832,-0.283,0,0,0,0,0,0,0,0,-0.3236,-0.3226,-0.3121,-0.3114,-0.3107,-0.3024,-0.3062,-0.2982,-0.2967,-0.3019,-0.2965,-0.2963,-0.2908,-0.2899,-0.288,-0.2839,-0.2834,-0.2832,-0.2829,-0.2828,-0.2827,0,0,0,0,0,0,0,-0.3242,-0.323,-0.3124,-0.3119,-0.3111,-0.309,-0.3077,-0.3047,-0.2971,-0.3015,-0.3008,-0.2996,-0.2904,-0.2884,-0.2877,-0.2832,-0.2832,-0.2828,-0.2826,-0.2825,-0.2789,-0.279,0,0,0,0,0,0,-0.3256,-0.3235,-0.3128,-0.3121,-0.317,-0.3088,-0.3074,-0.3052,-0.2971,-0.2958,-0.2997,-0.2992,-0.2891,-0.2881,-0.2873,-0.2871,-0.2828,-0.2825,-0.2823,-0.2788,-0.2789,-0.279,0,0,0,0,0,0,-0.326,-0.3248,-0.3132,-0.3176,-0.316,-0.3087,-0.3063,-0.305,-0.3031,-0.2958,-0.2944,-0.2991,-0.2889,-0.2878,-0.2853,-0.2866,-0.2823,-0.282,-0.2786,-0.2788,-0.279,-0.2867,0,0,0,0,0,0,-0.3264,-0.3249,-0.3249,-0.3177,-0.3158,-0.3114,-0.3064,-0.3049,-0.3025,-0.3017,-0.2949,-0.2936,-0.2888,-0.2858,-0.2849,-0.286,-0.2817,-0.2785,-0.2787,-0.2789,-0.2863,-0.2871,-0.2878,0,0,0,0,0,-0.327,-0.3275,-0.3249,-0.3237,-0.3156,-0.3115,-0.3104,-0.3048,-0.3026,-0.3025,-0.2979,-0.2938,-0.2866,-0.2857,-0.2845,-0.2855,-0.2784,-0.2786,-0.2789,-0.286,-0.287,-0.2878,0,0,0,0,0,0,-0.3349,-0.3264,-0.3235,-0.3216,-0.3174,-0.3101,-0.3098,-0.306,-0.3023,-0.3018,-0.295,-0.2935,-0.2918,-0.2884,-0.2875,-0.2854,-0.282,-0.282,-0.2877,-0.2886,-0.2894,-0.2903,-0.2814,0,0,0,0,0,-0.3365,-0.3339,-0.3265,-0.3256,-0.3236,-0.3171,-0.3151,-0.3112,-0.3065,-0.3047,-0.2998,-0.2954,-0.2922,-0.2902,-0.2867,-0.2857,-0.2842,-0.2859,-0.2867,-0.2873,-0.2875,-0.2869,-0.2877,-0.2799,-0.2799,-0.2799,0,0,-0.3396,-0.3346,-0.3334,-0.3271,-0.3233,-0.3209,-0.3156,-0.3132,-0.3113,-0.3043,-0.3017,-0.298,-0.2927,-0.291,-0.29,-0.2881,-0.2893,-0.2877,-0.2883,-0.288,-0.2873,-0.288,-0.2887,-0.2801,-0.28,-0.28,0,0,-0.3441,-0.34,-0.3389,-0.3353,-0.3297,-0.3254,-0.3251,-0.3184,-0.3157,-0.313,-0.3078,-0.3054,-0.2999,-0.2964,-0.2939,-0.2974,-0.2935,-0.2964,-0.3005,-0.3,-0.3006,-0.3011,-0.3026,-0.3031,-0.2966,-0.2966,-0.2966,0,-0.3488,-0.3448,-0.3388,-0.3367,-0.3342,-0.3278,-0.3267,-0.3235,-0.3171,-0.3155,-0.3134,-0.3065,-0.3025,-0.3,-0.3009,-0.299,-0.2986,-0.2972,-0.301,-0.3015,-0.3019,-0.3032,-0.3037,-0.297,-0.297,-0.2969,-0.2969,0,-0.3509,-0.3482,-0.348,-0.3421,-0.3395,-0.3379,-0.3318,-0.3299,-0.3263,-0.3223,-0.3197,-0.3146,-0.3102,-0.3093,-0.3056,-0.3064,-0.3054,-0.3023,-0.2987,-0.3031,-0.3042,-0.3046,-0.2976,-0.2974,-0.2973,-0.2972,0,0,-0.36,-0.3509,-0.351,-0.3483,-0.3417,-0.3396,-0.3378,-0.3335,-0.3322,-0.328,-0.3264,-0.322,-0.3191,-0.3163,-0.3122,-0.3118,-0.3152,-0.3087,-0.3085,-0.3103,-0.3159,-0.3185,-0.3191,-0.3125,-0.3126,-0.3127,-0.3164,0,-0.3637,-0.3601,-0.3548,-0.353,-0.3506,-0.3446,-0.343,-0.3389,-0.3351,-0.3326,-0.3284,-0.3254,-0.3217,-0.3201,-0.3194,-0.3149,-0.3162,-0.3145,-0.3112,-0.3111,-0.3129,-0.3196,-0.3222,-0.326,-0.3168,-0.3169,-0.3169,0,-0.3674,-0.3637,-0.3618,-0.3556,-0.3544,-0.3531,-0.3489,-0.3464,-0.3417,-0.339,-0.336,-0.3316,-0.3295,-0.3262,-0.3234,-0.3224,-0.3207,-0.3183,-0.3183,-0.3179,-0.3144,-0.3196,-0.3271,-0.3278,-0.3175,-0.3174,-0.3174,0,-0.3746,-0.3691,-0.3672,-0.3651,-0.3578,-0.3571,-0.354,-0.3491,-0.347,-0.3433,-0.3418,-0.3379,-0.3358,-0.333,-0.3277,-0.3258,-0.3255,-0.3217,-0.3234,-0.3235,-0.3237,-0.3238,-0.3312,-0.3223,-0.3223,-0.3223,-0.3223,0,-0.3793,-0.3784,-0.3704,-0.3693,-0.3682,-0.3621,-0.3611,-0.3575,-0.3533,-0.3514,-0.3459,-0.3443,-0.3374,-0.335,-0.3309,-0.3293,-0.3283,-0.3262,-0.3251,-0.3268,-0.3271,-0.3257,-0.3254,-0.3224,-0.3224,-0.3224,-0.3224,0,-0.3871,-0.3817,-0.3794,-0.3727,-0.371,-0.3705,-0.3648,-0.3636,-0.3595,-0.3573,-0.3564,-0.35,-0.347,-0.3414,-0.3368,-0.334,-0.3334,-0.3314,-0.335,-0.3344,-0.3364,-0.3364,-0.3433,-0.344,-0.3346,-0.3347,-0.3348,0,-0.3905,-0.3897,-0.383,-0.3814,-0.3786,-0.3761,-0.3739,-0.3679,-0.3659,-0.3605,-0.36,-0.3565,-0.3534,-0.3489,-0.3439,-0.3404,-0.3384,-0.3411,-0.3378,-0.3396,-0.3387,-0.3389,-0.3389,-0.3419,-0.342,-0.3421,-0.3422,0,-0.3973,-0.3947,-0.3918,-0.388,-0.3855,-0.3822,-0.3786,-0.3777,-0.3709,-0.3689,-0.3658,-0.3634,-0.3587,-0.3555,-0.3512,-0.3481,-0.3441,-0.3433,-0.3435,-0.3452,-0.3475,-0.3465,-0.3372,-0.3431,-0.343,-0.343,-0.3429,-0.3429,-0.4031,-0.4022,-0.3975,-0.3944,-0.3911,-0.388,-0.3866,-0.3824,-0.3797,-0.3755,-0.3721,-0.3693,-0.3647,-0.3587,-0.3558,-0.3536,-0.3517,-0.352,-0.3521,-0.3523,-0.3531,-0.3477,-0.3528,-0.3527,-0.3527,-0.3527,-0.3527,0,-0.4098,-0.4065,-0.4037,-0.399,-0.3967,-0.3931,-0.389,-0.3873,-0.3849,-0.381,-0.3781,-0.3747,-0.3715,-0.3663,-0.3627,-0.362,-0.3601,-0.3613,-0.3614,-0.3608,-0.3548,-0.3551,-0.3629,-0.3629,-0.3629,-0.3629,-0.3629,-0.3629,-0.413,-0.4114,-0.4083,-0.405,-0.4016,-0.3989,-0.3969,-0.394,-0.3909,-0.3873,-0.3846,-0.3813,-0.3769,-0.373,-0.37,-0.3686,-0.3676,-0.3695,-0.3675,-0.3621,-0.3611,-0.3602,-0.3605,-0.3692,-0.3693,-0.3736,-0.3736,-0.3737]},{"header":{"parameterUnit":"m.s-1","parameterCategory":1,"la1":30.2991,"la2":30.254,"lo1":-89.0895,"lo2":-89.0444,"dy":0.0017,"dx":0.0017,"nx":28,"ny":28,"refTime":"2025-11-19T03:00:00:Z","depth":0,"parameterNumber":3,"parameterNumberName":"V-component_of_WINDS"},"data":[0,0,0,0,0,0,0,0,0,0,0,0,0,0,0,0,0,0,0,0,0,0,0,0,0,0,0,0,0,0,0,0,0,0,0,0,0,0,0,0,0,0,0,0,0,0,0,0,0,0,0,0,0,0,0,0,0,0,1.6225,1.6224,0,1.6147,1.6146,1.6145,1.6128,1.6129,1.6129,1.613,1.6044,1.6042,1.6039,0,0,0,0,0,0,0,0,0,0,0,0,0,1.6354,1.6352,1.6225,1.6224,1.6223,1.6147,1.6146,1.6145,1.6128,1.6129,1.613,1.613,1.6045,1.6042,1.6039,0,0,0,0,0,0,0,0,0,0,0,0,0,1.6289,1.6351,1.6225,1.6206,1.6203,1.6147,1.6146,1.6144,1.6128,1.6129,1.613,1.6131,1.6047,1.6042,1.6038,1.5994,0,0,1.6025,1.6023,0,0,0,0,0,0,0,0,1.6293,1.6284,1.6209,1.6207,1.6204,1.6148,1.616,1.6094,1.6128,1.6156,1.613,1.6131,1.6078,1.6071,1.6054,1.599,1.5987,1.6025,1.6022,1.602,1.6019,0,0,0,0,0,0,0,1.6297,1.6288,1.6194,1.6208,1.6205,1.6199,1.6191,1.6147,1.6113,1.6154,1.6153,1.6144,1.6077,1.6059,1.6052,1.5985,1.6025,1.6021,1.6019,1.6017,1.588,1.5879,0,0,0,0,0,0,1.6306,1.6291,1.6196,1.6191,1.6252,1.6196,1.6187,1.6165,1.6113,1.6106,1.6143,1.6143,1.6065,1.6057,1.6049,1.5994,1.6021,1.6017,1.6014,1.5882,1.588,1.5879,0,0,0,0,0,0,1.6309,1.6298,1.6199,1.6241,1.6228,1.6193,1.6169,1.6163,1.6145,1.6105,1.6099,1.6131,1.6066,1.6055,1.6008,1.599,1.6015,1.6011,1.5883,1.5881,1.588,1.5883,0,0,0,0,0,0,1.6313,1.6299,1.6283,1.6241,1.6226,1.6161,1.6168,1.6161,1.6138,1.6138,1.6092,1.6086,1.6066,1.6015,1.6004,1.5985,1.6007,1.5884,1.5882,1.588,1.5884,1.5881,1.5879,0,0,0,0,0,1.6317,1.6286,1.6282,1.6271,1.6206,1.616,1.6151,1.6131,1.6137,1.612,1.6094,1.6087,1.5995,1.601,1.5998,1.5977,1.5885,1.5883,1.588,1.5885,1.5882,1.5879,0,0,0,0,0,0,1.6324,1.628,1.6275,1.623,1.6199,1.6158,1.6135,1.6128,1.6093,1.6094,1.6068,1.6058,1.6012,1.599,1.6008,1.5932,1.594,1.5935,1.5948,1.5944,1.5942,1.5947,1.6004,0,0,0,0,0,1.6321,1.629,1.6252,1.6215,1.62,1.617,1.615,1.6137,1.6103,1.6089,1.6061,1.6027,1.599,1.5966,1.593,1.5881,1.587,1.5861,1.5859,1.5857,1.5852,1.5824,1.5819,1.5871,1.5871,1.5871,0,0,1.6312,1.6284,1.6266,1.6215,1.619,1.6157,1.6159,1.6124,1.6098,1.6083,1.6038,1.6015,1.5976,1.5928,1.5905,1.5908,1.5836,1.5854,1.5853,1.5849,1.5821,1.5816,1.5811,1.5869,1.587,1.587,0,0,1.628,1.6256,1.6223,1.6198,1.6161,1.6142,1.6134,1.6093,1.6079,1.6033,1.6021,1.599,1.5927,1.5899,1.5877,1.5836,1.5827,1.5825,1.5811,1.5784,1.5779,1.5776,1.5759,1.5754,1.582,1.582,1.582,0,1.6274,1.6225,1.6206,1.6171,1.6149,1.6137,1.6101,1.6078,1.603,1.6014,1.6018,1.594,1.5912,1.5857,1.5847,1.583,1.5819,1.5829,1.5782,1.5778,1.5774,1.5758,1.5752,1.582,1.582,1.582,1.582,0,1.6218,1.6184,1.6161,1.6117,1.6093,1.6058,1.6032,1.6009,1.5999,1.5978,1.5931,1.5899,1.5855,1.5842,1.583,1.5785,1.5788,1.5788,1.5795,1.5769,1.5754,1.5748,1.582,1.582,1.582,1.582,0,0,1.6186,1.6134,1.6125,1.6105,1.6064,1.6036,1.6,1.596,1.594,1.5908,1.5876,1.5824,1.5824,1.5799,1.5784,1.5761,1.5728,1.5763,1.5762,1.5756,1.5675,1.5674,1.5667,1.5723,1.5722,1.5721,1.5677,0,1.6147,1.6085,1.6068,1.6014,1.5982,1.597,1.5939,1.5909,1.589,1.5858,1.5836,1.5799,1.5802,1.5787,1.5763,1.5737,1.5711,1.574,1.5691,1.569,1.57,1.5659,1.5658,1.5618,1.5671,1.567,1.567,0,1.6094,1.6062,1.6006,1.5969,1.5955,1.5927,1.5889,1.586,1.5825,1.5813,1.5785,1.5773,1.5734,1.5745,1.5689,1.571,1.5689,1.5673,1.5671,1.5664,1.5677,1.565,1.5605,1.5599,1.566,1.5661,1.5662,0,1.6074,1.6018,1.5977,1.596,1.5916,1.5897,1.5877,1.5844,1.5821,1.5788,1.5772,1.5734,1.5712,1.5682,1.5659,1.567,1.5605,1.5614,1.5591,1.5592,1.5576,1.5577,1.5527,1.5566,1.5566,1.5566,1.5566,0,1.6032,1.5998,1.5968,1.5942,1.5903,1.5883,1.5845,1.5824,1.5795,1.5764,1.5752,1.5723,1.5695,1.5662,1.5644,1.56,1.559,1.5577,1.5573,1.5578,1.5579,1.5562,1.5563,1.5565,1.5565,1.5565,1.5566,0,1.6003,1.5982,1.5936,1.5899,1.5889,1.5862,1.5829,1.5803,1.5784,1.5745,1.5734,1.5703,1.5664,1.5639,1.5588,1.5575,1.5527,1.5524,1.5539,1.5536,1.5514,1.5516,1.5449,1.5439,1.5487,1.5486,1.5486,0,1.5976,1.595,1.5911,1.589,1.5871,1.5838,1.5815,1.5795,1.5771,1.573,1.5709,1.5669,1.5636,1.5573,1.5544,1.5505,1.55,1.5479,1.5494,1.5499,1.5498,1.5499,1.5495,1.5476,1.5476,1.5475,1.5475,0,1.5931,1.5923,1.5891,1.5856,1.583,1.58,1.5771,1.5755,1.5729,1.5702,1.5663,1.5637,1.5586,1.5546,1.5505,1.5482,1.5473,1.5471,1.5464,1.5467,1.5477,1.547,1.553,1.5472,1.5473,1.5473,1.5473,1.5473,1.5901,1.5877,1.5846,1.5812,1.5788,1.5761,1.5735,1.5713,1.5681,1.5639,1.5628,1.5587,1.5552,1.5496,1.5473,1.5439,1.5442,1.5431,1.5428,1.5425,1.5424,1.5484,1.5432,1.5432,1.5432,1.5432,1.5432,0,1.5855,1.5835,1.5803,1.5763,1.5736,1.5733,1.5701,1.5677,1.5641,1.5611,1.5579,1.5533,1.5495,1.5464,1.5424,1.5402,1.5397,1.5392,1.5392,1.5387,1.5425,1.5435,1.5397,1.5397,1.5397,1.5397,1.5397,1.5397,1.5827,1.5786,1.5773,1.572,1.57,1.566,1.5642,1.5616,1.5592,1.5542,1.5511,1.5492,1.5461,1.5419,1.5383,1.5374,1.5359,1.5355,1.5346,1.5381,1.5385,1.5388,1.5397,1.5352,1.5352,1.5311,1.531,1.531]}]]